This demonstration page uses our WeatherBlox Daily Observations layout. Learn more.

Left ArrowRight Arrow

39.01783, -85.05884

Hourly Observations for March 1, 2022

Temp ( °F °C ) Dew Point ( °F °C ) Humidity (%) Winds ( mph kmh ) Pressure ( in mb ) Visibility ( mi km ) Precip ( " mm )
12:52 am 00:52 Clear 38 3.3 24 -4.4 57 57 SSW 8 13 30.08 1019 10 16 0.00 0.00
1:52 am 01:52 Mostly Clear 38 3.3 25 -3.9 60 60 SSW 10 17 30.06 1018 10 16 0.00 0.00
2:52 am 02:52 Cloudy 38 3.3 25 -3.9 60 60 SSW 9 15 30.05 1018 10 16 0.00 0.00
3:52 am 03:52 Cloudy 38 3.3 26 -3.3 62 62 SSW 9 15 30.04 1017 10 16 0.00 0.00
4:52 am 04:52 Cloudy 40 4.4 25 -3.9 55 55 SSW 9 15 30.04 1017 10 16 0.00 0.00
5:52 am 05:52 Cloudy 40 4.4 26 -3.3 58 58 SSW 6 9 30.04 1017 10 16 0.00 0.00
6:52 am 06:52 Cloudy 41 5 26 -3.3 55 55 SSW 7 11 30.05 1018 10 16 0.00 0.00
7:52 am 07:52 Cloudy 41 5 27 -2.8 57 57 SW 6 9 30.07 1018 10 16 0.00 0.00
8:52 am 08:52 Cloudy 42 5.6 28 -2.2 58 58 SSW 8 13 30.06 1018 10 16 0.00 0.00
9:52 am 09:52 Cloudy 44 6.7 29 -1.7 55 55 SSW 9 15 30.05 1018 10 16 0.00 0.00
10:52 am 10:52 Mostly Cloudy 48 8.9 30 -1.1 50 50 SSW 9 15 30.04 1017 10 16 0.00 0.00
11:52 am 11:52 Mostly Cloudy 54 12.2 32 0 43 43 S 9 15 30.04 1017 10 16 0.00 0.00
12:52 pm 12:52 Mostly Cloudy 59 15 30 -1.1 33 33 WSW 10 17 30.01 1016 10 16 0.00 0.00
1:52 pm 13:52 Mostly Cloudy 64 17.8 30 -1.1 28 28 WSW 16 26 29.97 1015 10 16 0.00 0.00
2:52 pm 14:52 Partly Cloudy 64 17.8 28 -2.2 26 26 WSW 12 19 29.95 1014 10 16 0.00 0.00
3:52 pm 15:52 Partly Cloudy 65 18.3 30 -1.1 27 27 SW 14 22 29.94 1014 10 16 0.00 0.00
4:52 pm 16:52 Mostly Cloudy 65 18.3 28 -2.2 25 25 W 14 22 29.94 1014 10 16 0.00 0.00
5:52 pm 17:52 Mostly Cloudy 64 17.8 29 -1.7 27 27 SW 9 15 29.94 1014 10 16 0.00 0.00
6:52 pm 18:52 Mostly Cloudy 61 16.1 26 -3.3 26 26 WSW 6 9 29.97 1015 10 16 0.00 0.00
7:52 pm 19:52 Cloudy 58 14.4 25 -3.9 28 28 W 7 11 29.98 1015 10 16 0.00 0.00
8:52 pm 20:52 Cloudy 57 13.9 26 -3.3 30 30 WSW 6 9 30.00 1016 10 16 0.00 0.00
9:52 pm 21:52 Cloudy 55 12.8 29 -1.7 37 37 WSW 5 7 30.01 1016 10 16 0.00 0.00
10:52 pm 22:52 Cloudy 53 11.7 30 -1.1 41 41 NNW 6 9 30.02 1017 10 16 0.00 0.00
11:52 pm 23:52 Cloudy 53 11.7 34 1.1 48 48 NNW 9 15 30.03 1017 10 16 0.00 0.00

Powered by AerisWeather